Terug naar catalogus

SL-8 DEB

ActiefLEO
NORAD 27746·DEBRIS·🇷🇺 Russia

Gelanceerd Feb 12, 1991 vanaf Plesetsk Cosmodrome

Loading…

Volgende Passages (komende 24 uur)

TLE

VerouderendSource: Space-Track

Epoch: Sep 8, 2026, 05:04 UTC

1 27746U 91009DB  26251.21131653  .00000054  00000-0  68011-3 0  9991
2 27746  74.1074 332.2450 0176446 305.3836  80.4400 12.14606258583845

Volg SL-8 DEB in realtime met AllMySat

Download on the App Store